Regional Weather Roundup
Issued by NWS

Home | Current Version | Previous Version | Graphics & Text | Print | Product List | Glossary On
Versions: 1 2 3 4 5 6 7 8 9 10 11 12 13 14 15 16 17 18 19 20 21 22 23 24 25 26
255
ASUS43 KDMX 221107
RWRIA

WEATHER ROUNDUP FOR IOWA
NATIONAL WEATHER SERVICE DES MOINES IA
600 AM CDT FRI MAY 22 2015

NOTE: "FAIR" INDICATES FEW OR NO CLOUDS BELOW 12,000 FEET WITH NO
SIGNIFICANT WEATHER AND/OR OBSTRUCTIONS TO VISIBILITY.

* - THESE STATIONS ARE NOT NWS STATIONS...THUS NOT UNDER NWS
QUALITY CONTROL.  THEY ALSO DO NOT REPORT WEATHER SUCH
AS PRECIPITATION OR FOG.

IAZ001>003-012>014-020>022-031>034-043>046-221200-
   NORTHWEST IOWA

CITY           SKY/WX    TMP DP  RH WIND       PRES   REMARKS
CARROLL *      CLEAR     48  41  76 W9        30.18S
CHEROKEE *     CLEAR     41  41 100 CALM      30.19R
DENISON *      CLEAR     45  43  93 CALM      30.19R
LE MARS *      CLEAR     43  41  93 CALM      30.20S
ORANGE CITY *  CLEAR     45  37  76 CALM      30.19S
SHELDON *      CLEAR     43  37  81 CALM      30.17S
SIOUX CITY     CLEAR     43  37  79 SW5       30.20R
SPENCER        CLEAR     43  35  73 CALM      30.18S
STORM LAKE *   CLEAR     48  39  71 W9        30.20R
$$

IAZ055>058-069>071-079>083-090>094-221200-
   SOUTHWEST IOWA

CITY           SKY/WX    TMP DP  RH WIND       PRES   REMARKS
ATLANTIC *     CLEAR     45  43  93 CALM      30.21R
AUDUBON *      CLEAR     48  41  76 CALM      30.20S
CLARINDA *     CLEAR     45  45 100 CALM      30.23S
COUNCIL BLFS * CLEAR     54  41  62 NW3       30.21S
CRESTON *      CLEAR     48  43  81 W5        30.20S
HARLAN  *      CLEAR     45  45 100 CALM      30.24R
LAMONI         PTCLDY    50  42  74 W8        30.19S
RED OAK *      CLEAR     45  45 100 CALM      30.21S
SHENANDOAH *   CLEAR     45  45 100 S3        30.23R
$$

IAZ047>049-059>061-072>074-084-221200-
   CENTRAL IOWA

CITY           SKY/WX    TMP DP  RH WIND       PRES   REMARKS
AMES           CLEAR     42  39  89 W5        30.17R
ANKENY *       CLEAR     50  43  76 NW5       30.17S
CHARITON *     CLEAR     50  43  76 W8        30.19R
DES MOINES     PTCLDY    51  41  68 NW6       30.18R
GRINNELL*      CLEAR     45  39  81 W6        30.17R
KNOXVILLE *    CLEAR     48  41  76 W9        30.16R
MARSHALLTOWN   CLEAR     45  36  70 NW6       30.15S
PELLA *        CLEAR     50  45  81 NW6       30.18S
PERRY *          N/A     46  41  81 NW6       30.18S
$$

IAZ004>006-015-016-023>025-035-036-221200-
   NORTH CENTRAL IOWA

CITY           SKY/WX    TMP DP  RH WIND       PRES   REMARKS
ALGONA *       CLEAR     50  34  53 NW8       30.19R
CLARION *      CLEAR     43  37  81 CALM      30.18R
ESTHERVILLE    CLEAR     42  33  70 W7        30.18R
FORT DODGE *   CLEAR     41  36  81 CALM      30.18S
MASON CITY     CLEAR     42  34  73 W5        30.18R
FOREST CITY *  CLEAR     37  37 100 CALM      30.17R
IOWA FALLS *     N/A     43  36  75 W7        30.18R
$$

IAZ007>011-017>019-026>030-037>042-050>054-066-221200-
   NORTHEAST IOWA

CITY           SKY/WX    TMP DP  RH WIND       PRES   REMARKS
CEDAR RAPIDS   CLEAR     43  38  82 NW7       30.14R
CHARLES CITY * CLEAR     45  39  81 NW5       30.16S
CLINTON *      CLEAR     45  37  76 NW5       30.16R
DECORAH *      CLEAR     46  36  66 CALM      30.15R
DUBUQUE        CLEAR     45  37  73 CALM      30.14R
MONTICELLO *   CLEAR     41  41 100 CALM      30.15R
OELWEIN *      CLEAR     45  39  81 NW5       30.16R
WATERLOO       CLEAR     39  37  92 CALM      30.15R
$$

IAZ064-065-067-068-078-221200-
   EAST CENTRAL IOWA

CITY           SKY/WX    TMP DP  RH WIND       PRES   REMARKS
DAVENPORT      CLEAR     44  38  79 W5        30.15R
IOWA CITY      CLEAR     44  37  76 NW3       30.17R
MT. PLEASANT * CLEAR     50  45  81 W7        30.16R
MUSCATINE *    CLEAR     48  41  76 CALM      30.15S
QUAD CITIES    CLEAR     46  40  79 CALM      30.14R
$$

IAZ062-063-075>077-085>089-095>099-221200-
   SOUTHEAST IOWA

CITY           SKY/WX    TMP DP  RH WIND       PRES   REMARKS
BURLINGTON     CLEAR     51  45  79 NW9       30.15R
FAIRFIELD *    CLEAR     48  43  81 NW8       30.16S
FORT MADISON * CLEAR     50  45  81 W7        30.17R
KEOKUK *       CLEAR     50  45  81 W5        30.16R
OSKALOOSA *      N/A     46  43  87 NW8       30.17S
CENTERVILLE *  CLEAR     48  48 100 W7        30.20R
OTTUMWA        CLEAR     48  42  80 NW8       30.16R
WASHINGTON *   CLEAR     48  43  81 W8        30.17R
$$

ABBREVIATIONS USED IN REMARKS
   TC - TEMPERATURES IN CELSIUS
  WCI - WIND CHILL INDEX
   HX - HEAT INDEX
  VSB - VISIBILITY
$$




USA.gov is the U.S. government's official web portal to all federal, state and local government web resources and services.